Location: Cartignies
(50.0929°N, 3.8447°E)
Time: 13:49:01
(UTC+00:00)

SL-24 R/B - RUBIN 2 - Pass Details

Date: 12 January 2026
Orbit: 602 x 985 km, 64.6° (Epoch: 16 February)

Event Time Altitude Azimuth Distance (km) Brightness Sun altitude
Rises 18:04:07 0° 320° (NW) 2,903 7.4 -18.1°
Reaches altitude 10° 18:06:28 10° 326° (NW) 1,972 6.4 -18.5°
Maximum altitude 18:10:45 51° 43° (NE) 761 3.6 -19.1°
Enters shadow 18:11:27 46° 76° (ENE) 816 3.7 -19.2°
